ISS DEB [SPX-28 IPA FSE] (57212 NORAD) Tracking and Keplerian Element Data

This shows tracking and keplerian element data for the satellite.

Feedback or suggestion? Click here.




ElementValue
Catalog57212
NameISS DEB [SPX-28 IPA FSE]
Epoch Orbit4929
Epoch Day126.16838219
Epoch Year2024
RAAN132.5818
Inclination51.6199
Eccentricity0.0005492
Argument of Perigee38.3613
Mean Anonmoly321.7786
Mean Motion15.99230243
Decay Rate0.00330805
L11 57212U 98067VP 24126.16838219 .00330805 56768-4 66163-3 0 9990
L22 57212 51.6199 132.5818 0005492 38.3613 321.7786 15.99230243 49298



Live tracking and technical data element details for ISS DEB [SPX-28 IPA FSE] (NORAD 57212). ISS DEB [SPX-28 IPA FSE] can be tracked NOW for your location showing map with azimuth and elevation plus other details from your city location.







IsCatalogInMostPopularTable: catalog: 57212, numindb: 280
Update: records affected: 1



GetName: 57212 ISS DEB [SPX-28 IPA FSE]

Hit Count: updated at: Mon, 17 Nov 2025 07:37:06 GMT